This demonstration page uses our WeatherBlox Daily Observations layout. Learn more.

41.55636, -103.73856

Hourly Observations for May 5, 2018

Temp ( °F °C ) Dew Point ( °F °C ) Humidity (%) Winds ( mph kmh ) Pressure ( in mb ) Visibility ( mi km ) Precip ( " mm )
12:53 am 00:53 Clear 49 9.4 41 5 74 74 E 6 9 30.06 1018 10 16.09344 0 0
1:53 am 01:53 Clear 47 8.3 41 5 80 80 Calm 30.06 1018 10 16.09344 0 0
2:53 am 02:53 Clear 45 7.2 41 5 86 86 NW 8 13 30.06 1018 10 16.09344 0 0
3:53 am 03:53 Clear 46 7.8 43 6.1 89 89 NW 9 15 30.06 1018 10 16.09344 0 0
4:53 am 04:53 Clear 43 6.1 42 5.6 97 97 undefined N/A 30.06 1018 10 16.09344 0 0
5:53 am 05:53 Sunny 44 6.7 41 5 89 89 NW 13 20 30.09 1019 10 16.09344 0 0
6:53 am 06:53 Sunny 47 8.3 43 6.1 86 86 NW 10 17 30.09 1019 10 16.09344 0 0
7:53 am 07:53 Sunny 54 12.2 45 7.2 72 72 WNW 13 20 30.12 1020 10 16.09344 0 0
8:53 am 08:53 Sunny 58 14.4 46 7.8 65 65 WNW 13 20 30.12 1020 10 16.09344 0 0
9:53 am 09:53 Sunny 64 17.8 47 8.3 54 54 WNW 12 19 30.12 1020 10 16.09344 0 0
10:53 am 10:53 Sunny 71 21.7 47 8.3 42 42 W 10 17 30.09 1019 10 16.09344 0 0
11:53 am 11:53 Sunny 74 23.3 41 5 31 31 WNW 5 7 30.09 1019 10 16.09344 0 0
12:53 pm 12:53 Sunny 76 24.4 40 4.4 27 27 N 7 11 30.06 1018 10 16.09344 0 0
1:53 pm 13:53 Sunny 77 25 38 3.3 24 24 N 9 15 30.06 1018 10 16.09344 0 0
2:53 pm 14:53 Partly Cloudy 77 25 36 2.2 23 23 Calm 30.03 1017 10 16.09344 0 0
3:53 pm 15:53 Sunny 75 23.9 42 5.6 31 31 W 12 19 30.03 1017 10 16.09344 0 0
4:53 pm 16:53 Sunny 72 22.2 42 5.6 34 34 N 15 24 30.06 1018 10 16.09344 0 0
5:53 pm 17:53 Sunny 73 22.8 42 5.6 33 33 N 7 11 30.03 1017 10 16.09344 0 0
6:53 pm 18:53 Sunny 70 21.1 50 10 49 49 NNW 3 6 30.03 1017 10 16.09344 0 0
7:53 pm 19:53 Sunny 67 19.4 46 7.8 47 47 Calm 30.03 1017 10 16.09344 0 0
8:53 pm 20:53 Clear 61 16.1 47 8.3 60 60 NNE 6 9 30.06 1018 10 16.09344 0 0
9:53 pm 21:53 Clear 58 14.4 46 7.8 65 65 NNE 3 6 30.09 1019 10 16.09344 0 0
10:53 pm 22:53 Clear 55 12.8 46 7.8 72 72 Calm 30.09 1019 10 16.09344 0 0
11:53 pm 23:53 Clear 50 10 46 7.8 86 86 NNE 9 15 30.09 1019 10 16.09344 0 0

Powered by AerisWeather